Flag for Switzerland Weather past 2 weeks in Davos, Graubünden, Switzerland

Now
57 °F

Cool.


Feels Like: 57 °F
Forecast: 42 / 56 °F
Wind: No wind

Location: Chur-Ems

Current Time: Oct 1, 2014 at 12:56:31 AM

Latest Report: Oct 1, 2014 at 12:00 AM


Visibility: N/A

Pressure: 30.32 "Hg

Humidity: 94%

Dew point: 55 °F

Location of DavosLocation

Historic Weather in Davos — Graph

°F

Davos temperature yesterday

Maximum temperature yesterday: 66 °F (at 2:00 PM)
Minimum temperature yesterday: 51 °F (at 3:00 AM)
Average temperature yesterday: 58 °F

Past Weeks' High & Low Weather Summary

 TemperatureHumidityPressure
High75 °F (Sep 18, 12:00 PM)95% (Sep 30, 11:00 PM)30.38 "Hg (Sep 30, 11:00 PM)
Low42 °F (Sep 23, 8:00 AM)33% (Sep 29, 1:00 PM)29.85 "Hg (Sep 18, 12:00 PM)
Average59 °F72%30.13 "Hg
* Reported Sep 15 11:00 PM — Sep 30 11:00 PM, Davos, Weather by CustomWeather, © 2014

Note: Actual official high and low records may vary slightly from our data, if they occured in-between our weather recording intervals... More about our weather records

Advertising

Davos weather history for previous 24 hours

 ConditionsComfort  
Time TempWeatherWind HumidityBarometerVisibility
11:00 PM
Sep 30
57 °FFog.1 mph95%30.33 "Hg3 mi
10:00 PM58 °FCool.1 mph94%30.33 "HgN/A
9:00 PM58 °FCool.1 mph93%30.32 "HgN/A
8:00 PM58 °FFog.2 mph90%30.32 "Hg6 mi
7:00 PM59 °FCool.1 mph91%30.32 "HgN/A
6:00 PM59 °FCool.1 mph87%30.32 "HgN/A
5:00 PM59 °FRain. Overcast.2 mph88%30.31 "Hg3 mi
4:00 PM62 °FCool.3 mph75%30.29 "HgN/A
3:00 PM64 °FMild.6 mph59%30.27 "HgN/A
2:00 PM66 °FOvercast.7 mph58%30.27 "Hg11 mi
1:00 PM64 °FMild.2 mph60%30.29 "HgN/A
12:00 PM62 °FMild.1 mph59%30.30 "HgN/A
11:00 AM62 °FOvercast.2 mph59%30.30 "Hg12 mi
10:00 AM58 °FCool.2 mph64%30.33 "HgN/A
9:00 AM57 °FCool.1 mph71%30.33 "HgN/A
8:00 AM56 °FOvercast.No wind66%30.33 "Hg12 mi
7:00 AM55 °FCool.1 mph71%30.33 "HgN/A
6:00 AM55 °FCool.2 mph69%30.33 "HgN/A
5:00 AM52 °FPassing clouds.1 mph83%30.34 "Hg11 mi
4:00 AM53 °FCool.No wind83%30.34 "HgN/A
3:00 AM51 °FCool.2 mph88%30.35 "HgN/A
2:00 AM52 °FPassing clouds.No wind88%30.36 "Hg12 mi
1:00 AM54 °FCool.1 mph83%30.34 "HgN/A
12:00 AM55 °FCool.1 mph82%30.34 "HgN/A
Weather by CustomWeather, © 2014

See weather overviewHow to use our weather pages